Regional Weather Roundup
Issued by NWS Tiyan, Guam

Home | Current Version | Previous Version | Text Only | Print | Product List | Glossary On
Versions: 1 2 3 4 5 6 7 8 9 10 11 12 13 14 15 16 17 18 19 20 21 22 23 24 25 26 27
000
ASGM40 PGUM 242312
RWRGUM
WEATHER ROUNDUP FOR THE MARIANAS
NATIONAL WEATHER SERVICE TIYAN GU
900 AM CHST MON SEP 25 2017

GUZ001>004-250000-
MARIANA ISLANDS-

CITY           SKY/WX    TMP DP  RH WIND       PRES   REMARKS
GUAM AIRPORT   MOSUNNY   88  79  74 NE9       29.91S HX 102
ANDERSEN AFB   LGT RAIN  82  79  89 NE9       29.92R HX  93
ROTA AIRPORT   PTSUNNY   82  79  89 NE12      29.92R HX  93
TINIAN AP      MOSUNNY   86  79  79 NE13      29.89S HX  99
SAIPAN AP      MOSUNNY   86  81  84 NE13      29.91R HX 102

$$





USA.gov is the U.S. government's official web portal to all federal, state and local government web resources and services.